カタログに戻る

AIST 1

運用中科学PO
NORAD 39492·PAYLOAD·🇷🇺 Russia

打ち上げ Dec 28, 2013 から Plesetsk Cosmodrome

Loading…

次のパス (今後24時間)

TLE

最新Source: Space-Track

元期: Sep 14, 2026, 13:50 UTC

1 39492U 13078C   26257.57708289  .00001300  00000-0  11255-3 0  9995
2 39492  82.4189 184.2695 0016477 343.8342  16.2352 14.96273909688616

AllMySatでAIST 1をリアルタイム追跡

Download on the App Store